Change the Weather History Date:

Wednesday, March 5, 2014

  Actual Average Record
Temperature  
Mean Temperature 42 °F -  
Max Temperature 54 °F 49 °F - ()
Min Temperature 29 °F 37 °F - ()
Degree Days  
Heating Degree Days 24    
Moisture  
Dew Point 37 °F    
Average Humidity 83    
Maximum Humidity 100    
Minimum Humidity 39    
Precipitation  
Precipitation 0.00 in - - ()
Sea Level Pressure  
Sea Level Pressure 30.09 in    
Wind  
Wind Speed 3 mph ()    
Max Wind Speed 9 mph    
Max Gust Speed -    
Visibility 4.8 miles    
Events Fog    
T = Trace of Precipitation, MM = Missing Value Source: Averaged Metar Reports

Daily Weather History Graph

Daily Weather History Graph

Search for Another Location

Airport or City:

Trip Planner

Search our weather history database for the weather conditions in past years. The results will help you decide how hot, cold, wet, or windy it might be!

Date:

Astronomy

Mar. 05, 2014 Rise Set
Actual Time 7:19 AM CET 6:28 PM CET
Civil Twilight 6:45 AM CET 7:02 PM CET
Nautical Twilight 6:06 AM CET 7:41 PM CET
Astronomical Twilight 5:27 AM CET 8:21 PM CET
Moon 9:00 AM CET (3/5) No Moon Set
Length of Visible Light 12h 16m
Length of Day
11h 09m
Waxing Crescent, 21% of the Moon is Illuminated
Mar 5
Waxing Crescent
Mar 8
First Quarter
Mar 16
Full
Mar 24
Last Quarter
Mar 30
New

Hourly Weather History & Observations

Time (CET) Temp. Windchill Dew Point Humidity Pressure Visibility Wind Dir Wind Speed Gust Speed Precip Events Conditions
12:00 AM 36 °F - 36 °F 99% 29.84 in 0 mi South 2.2 mph - - Fog Fog
12:25 AM 35.6 °F - 35.6 °F 100% 29.83 in 0.2 mi SSE 2.3 mph - N/A Fog Fog
12:55 AM 35.6 °F 32.8 °F 33.8 °F 93% 29.86 in 0.2 mi South 3.5 mph - N/A Fog Fog
1:00 AM 35 °F - 35 °F 98% 29.86 in 0 mi SSW 2.2 mph - - Fog Fog
1:25 AM 33.8 °F 30.8 °F 33.8 °F 100% 29.86 in 0.2 mi SSE 3.5 mph - N/A Fog Fog
1:55 AM 33.8 °F - 33.8 °F 100% 29.86 in 0.7 mi South 2.3 mph - N/A   Mist
2:00 AM 33 °F - 33 °F 97% 29.88 in 0 mi SSW 2.2 mph - - Fog Fog
2:25 AM 30.2 °F 26.7 °F 30.2 °F 100% 29.89 in 0.3 mi SW 3.5 mph - N/A Fog Light Freezing Fog
2:55 AM 32.0 °F 27.5 °F 32.0 °F 100% 29.89 in 0.9 mi South 4.6 mph - N/A   Mist
3:00 AM 33 °F - 33 °F 100% 29.90 in 0 mi South 4.5 mph - - Fog Fog
3:25 AM 35.6 °F - 33.8 °F 93% 29.89 in 0.3 mi South 2.3 mph - N/A Fog Fog
3:55 AM 33.8 °F - 33.8 °F 100% 29.89 in 0.2 mi SSW 2.3 mph - N/A Fog Fog
4:00 AM 31 °F - 31 °F 100% 29.92 in 0 mi SW 2.2 mph - - Fog Fog
4:25 AM 30.2 °F - 30.2 °F 100% 29.92 in 0.1 mi SSW 1.2 mph - N/A Fog Light Freezing Fog
4:55 AM 30.2 °F - 30.2 °F 100% 29.95 in 0.2 mi SSE 2.3 mph - N/A Fog Light Freezing Fog
5:00 AM 31 °F - 31 °F 100% 29.95 in 0 mi SSE 2.2 mph - - Fog Fog
5:25 AM 33.8 °F - 33.8 °F 100% 29.95 in 1.4 mi South 2.3 mph - N/A   Mist
5:55 AM 33.8 °F 30.8 °F 33.8 °F 100% 29.95 in 1.6 mi SSE 3.5 mph - N/A   Mist
6:00 AM 35 °F - 35 °F 97% 29.97 in 1 mi South 2.2 mph - - Fog Fog
6:25 AM 37.4 °F - 37.4 °F 100% 29.98 in - SSW 2.3 mph - N/A   Partly Cloudy
6:55 AM 35.6 °F - 35.6 °F 100% 29.98 in 1.8 mi SW 2.3 mph - N/A   Scattered Clouds
7:00 AM 36 °F - 36 °F 99% 30.00 in 1 mi South 2.2 mph - -   Mist
7:25 AM 37.4 °F - 37.4 °F 100% 30.01 in 0.5 mi Variable 2.3 mph - N/A Fog Fog
7:55 AM 37.4 °F 34.9 °F 37.4 °F 100% 30.01 in 0.9 mi SSE 3.5 mph - N/A   Mist
8:00 AM 37 °F - 37 °F 100% 30.02 in 0 mi SE 4.5 mph - - Fog Fog
8:25 AM 39.2 °F - 39.2 °F 100% 30.01 in 1.0 mi SSE 2.3 mph - N/A   Mist
8:55 AM 41.0 °F - 39.2 °F 93% 30.04 in 1.4 mi South 2.3 mph - N/A   Mist
9:00 AM 41 °F - 41 °F 100% 30.06 in 2 mi SSW 2.2 mph - - Fog Fog
9:25 AM 42.8 °F - 42.8 °F 100% 30.06 in 3.1 mi Variable 2.3 mph - N/A   Mist
9:55 AM 46.4 °F 45.2 °F 44.6 °F 93% 30.06 in 3.1 mi WSW 3.5 mph - N/A   Mist
10:00 AM 47 °F - 45 °F 89% 30.09 in 3 mi WSW 4.5 mph - -   Mist
10:25 AM 48.2 °F - 44.6 °F 87% 30.09 in 5.0 mi WNW 3.5 mph - N/A   Unknown
10:55 AM 50.0 °F - 44.6 °F 82% 30.09 in 5.6 mi Variable 2.3 mph - N/A   Unknown
11:00 AM 50 °F - 45 °F 78% 30.12 in 6 mi NW 2.2 mph - -  
11:25 AM 51.8 °F - 42.8 °F 71% 30.09 in 6.2 mi Variable 2.3 mph - N/A   Partly Cloudy
11:55 AM 51.8 °F - 41.0 °F 67% 30.09 in 6.2 mi NW 5.8 mph - N/A   Partly Cloudy
12:00 PM 51 °F - 40 °F 56% 30.12 in 12 mi NW 4.5 mph - -   Scattered Clouds
12:25 PM 53.6 °F - 37.4 °F 54% 30.12 in 6.2 mi NNW 3.5 mph - N/A   Unknown
12:55 PM 53.6 °F - 37.4 °F 54% 30.12 in 6.2 mi NNW 6.9 mph - N/A   Unknown
1:00 PM 51 °F - 37 °F 48% 30.14 in 15 mi North 6.7 mph - -   Partly Cloudy
1:25 PM 51.8 °F - 35.6 °F 54% 30.12 in 6.2 mi North 4.6 mph - N/A   Partly Cloudy
1:55 PM 53.6 °F - 37.4 °F 54% 30.15 in 6.2 mi NW 6.9 mph - N/A   Scattered Clouds
2:00 PM 54 °F - 36 °F 39% 30.15 in 11 mi NW 6.7 mph - -   Mostly Cloudy
2:25 PM 53.6 °F - 35.6 °F 51% 30.15 in 6.2 mi NW 6.9 mph - N/A   Mostly Cloudy
2:55 PM 53.6 °F - 37.4 °F 54% 30.15 in 6.2 mi WNW 6.9 mph - N/A   Mostly Cloudy
3:00 PM 54 °F - 37 °F 40% 30.17 in 12 mi West 8.9 mph - -   Partly Cloudy
3:25 PM 53.6 °F - 37.4 °F 54% 30.15 in 6.2 mi West 8.1 mph - N/A   Scattered Clouds
3:55 PM 53.6 °F - 37.4 °F 54% 30.18 in 6.2 mi WNW 6.9 mph - N/A   Unknown
4:00 PM 53 °F - 37 °F 44% 30.19 in 12 mi West 6.7 mph - -  
4:25 PM 51.8 °F - 37.4 °F 58% 30.18 in 6.2 mi West 6.9 mph - N/A   Unknown
4:55 PM 51.8 °F - 37.4 °F 58% 30.18 in 6.2 mi West 6.9 mph - N/A   Unknown
5:00 PM 52 °F - 38 °F 49% 30.20 in 15 mi West 6.7 mph - -  
5:25 PM 51.8 °F - 39.2 °F 62% 30.21 in 6.2 mi WNW 4.6 mph - N/A   Unknown
5:55 PM 50.0 °F - 39.2 °F 66% 30.21 in 6.2 mi WNW 4.6 mph - N/A   Unknown
6:00 PM 48 °F - 39 °F 61% 30.23 in 12 mi WNW 4.5 mph - -  
6:25 PM 46.4 °F 44.3 °F 39.2 °F 76% 30.21 in 6.2 mi WNW 4.6 mph - N/A   Unknown
6:55 PM 42.8 °F - 37.4 °F 81% 30.24 in 6.2 mi WNW 2.3 mph - N/A   Unknown
7:00 PM 42 °F - 37 °F 78% 30.25 in 12 mi WNW 2.2 mph - -   Partly Cloudy
7:25 PM 42.8 °F 41.1 °F 37.4 °F 81% 30.24 in 6.2 mi NW 3.5 mph - N/A   Unknown
7:55 PM 39.2 °F - 35.6 °F 87% 30.24 in 6.2 mi West 2.3 mph - N/A   Unknown
8:00 PM 41 °F - 38 °F 85% 30.27 in 11 mi West 2.2 mph - -  
8:25 PM 39.2 °F - 37.4 °F 93% 30.24 in 6.2 mi Variable 1.2 mph - N/A   Unknown
8:55 PM 39.2 °F - 37.4 °F 93% 30.27 in 6.2 mi Variable 2.3 mph - N/A   Unknown
9:00 PM 40 °F - 37 °F 84% 30.29 in 9 mi WSW 2.2 mph - -  
9:25 PM 39.2 °F - 37.4 °F 93% 30.27 in 6.2 mi Variable 1.2 mph - N/A   Unknown
9:55 PM 37.4 °F - 35.6 °F 93% 30.27 in 6.2 mi South 2.3 mph - N/A   Unknown
10:00 PM 37 °F - 35 °F 91% 30.30 in 8 mi SE 2.2 mph - -  
10:25 PM 37.4 °F - 35.6 °F 93% 30.30 in 6.2 mi SSE 2.3 mph - N/A   Unknown
10:55 PM 37.4 °F 34.9 °F 37.4 °F 100% 30.27 in 6.2 mi SSE 3.5 mph - N/A   Unknown
11:00 PM 36 °F - 36 °F 100% 30.30 in 6 mi SSE 4.5 mph - -  
11:25 PM 37.4 °F 34.9 °F 37.4 °F 100% 30.30 in 6.2 mi SSE 3.5 mph - N/A   Unknown
11:55 PM 35.6 °F - 35.6 °F 100% 30.30 in 5.6 mi SW 2.3 mph - N/A   Unknown